Year,Month,Day,Hour,Minute,Value (Times are PST for temperature in C)
2016,08,15,00,00,17.40
2016,08,15,00,01,17.40
2016,08,15,00,02,17.40
2016,08,15,00,03,17.40
2016,08,15,00,04,17.30
2016,08,15,00,05,17.30
2016,08,15,00,06,17.30
2016,08,15,00,07,17.20
2016,08,15,00,08,17.20
2016,08,15,00,09,17.20
2016,08,15,00,10,17.20
2016,08,15,00,11,17.20
2016,08,15,00,12,17.30
2016,08,15,00,13,17.30
2016,08,15,00,14,17.30
2016,08,15,00,15,17.30
2016,08,15,00,16,17.40
2016,08,15,00,17,17.40
2016,08,15,00,18,17.50
2016,08,15,00,19,17.50
2016,08,15,00,20,17.60
2016,08,15,00,21,17.60
2016,08,15,00,22,17.60
2016,08,15,00,23,17.60
2016,08,15,00,24,17.60
2016,08,15,00,25,17.60
2016,08,15,00,26,17.60
2016,08,15,00,27,17.60
2016,08,15,00,28,17.60
2016,08,15,00,29,17.50
2016,08,15,00,30,17.50
2016,08,15,00,31,17.50
2016,08,15,00,32,17.40
2016,08,15,00,33,17.40
2016,08,15,00,34,17.40
2016,08,15,00,35,17.40
2016,08,15,00,36,17.30
2016,08,15,00,37,17.30
2016,08,15,00,38,17.30
2016,08,15,00,39,17.30
2016,08,15,00,40,17.30
2016,08,15,00,41,17.30
2016,08,15,00,42,17.30
2016,08,15,00,43,17.30
2016,08,15,00,44,17.30
2016,08,15,00,45,17.30
2016,08,15,00,46,17.20
2016,08,15,00,47,17.20
2016,08,15,00,48,17.20
2016,08,15,00,49,17.20
2016,08,15,00,50,17.20
2016,08,15,00,51,17.20
2016,08,15,00,52,17.20
2016,08,15,00,53,17.20
2016,08,15,00,54,17.20
2016,08,15,00,55,17.20
2016,08,15,00,56,17.20
2016,08,15,00,57,17.20
2016,08,15,00,58,17.20
2016,08,15,00,59,17.20
2016,08,15,01,00,17.30
2016,08,15,01,01,17.30
2016,08,15,01,02,17.30
2016,08,15,01,03,17.30
2016,08,15,01,04,17.30
2016,08,15,01,05,17.30
2016,08,15,01,06,17.30
2016,08,15,01,07,17.30
2016,08,15,01,08,17.30
2016,08,15,01,09,17.30
2016,08,15,01,10,17.30
2016,08,15,01,11,17.30
2016,08,15,01,12,17.30
2016,08,15,01,13,17.30
2016,08,15,01,14,17.30
2016,08,15,01,15,17.30
2016,08,15,01,16,17.30
2016,08,15,01,17,17.30
2016,08,15,01,18,17.30
2016,08,15,01,19,17.30
2016,08,15,01,20,17.30
2016,08,15,01,21,17.20
2016,08,15,01,22,17.20
2016,08,15,01,23,17.20
2016,08,15,01,24,17.20
2016,08,15,01,25,17.20
2016,08,15,01,26,17.20
2016,08,15,01,27,17.10
2016,08,15,01,28,17.10
2016,08,15,01,29,17.10
2016,08,15,01,30,17.00
2016,08,15,01,31,17.00
2016,08,15,01,32,16.90
2016,08,15,01,33,16.90
2016,08,15,01,34,16.80
2016,08,15,01,35,16.80
2016,08,15,01,36,16.80
2016,08,15,01,37,16.80
2016,08,15,01,38,16.80
2016,08,15,01,39,16.70
2016,08,15,01,40,16.70
2016,08,15,01,41,16.70
2016,08,15,01,42,16.60
2016,08,15,01,43,16.60
2016,08,15,01,44,16.60
2016,08,15,01,45,16.60
2016,08,15,01,46,16.50
2016,08,15,01,47,16.50
2016,08,15,01,48,16.40
2016,08,15,01,49,16.40
2016,08,15,01,50,16.40
2016,08,15,01,51,16.40
2016,08,15,01,52,16.40
2016,08,15,01,53,16.40
2016,08,15,01,54,16.40
2016,08,15,01,55,16.40
2016,08,15,01,56,16.40
2016,08,15,01,57,16.40
2016,08,15,01,58,16.40
2016,08,15,01,59,16.40
2016,08,15,02,00,16.40
2016,08,15,02,01,16.40
2016,08,15,02,02,16.40
2016,08,15,02,03,16.40
2016,08,15,02,04,16.40
2016,08,15,02,05,16.40
2016,08,15,02,06,16.40
2016,08,15,02,07,16.40
2016,08,15,02,08,16.40
2016,08,15,02,09,16.40
2016,08,15,02,10,16.40
2016,08,15,02,11,16.40
2016,08,15,02,12,16.40
2016,08,15,02,13,16.50
2016,08,15,02,14,16.50
2016,08,15,02,15,16.60
2016,08,15,02,16,16.60
2016,08,15,02,17,16.60
2016,08,15,02,18,16.60
2016,08,15,02,19,16.60
2016,08,15,02,20,16.60
2016,08,15,02,21,16.60
2016,08,15,02,22,16.60
2016,08,15,02,23,16.60
2016,08,15,02,24,16.60
2016,08,15,02,25,16.60
2016,08,15,02,26,16.60
2016,08,15,02,27,16.60
2016,08,15,02,28,16.50
2016,08,15,02,29,16.50
2016,08,15,02,30,16.40
2016,08,15,02,31,16.40
2016,08,15,02,32,16.40
2016,08,15,02,33,16.40
2016,08,15,02,34,16.30
2016,08,15,02,35,16.30
2016,08,15,02,36,16.30
2016,08,15,02,37,16.30
2016,08,15,02,38,16.20
2016,08,15,02,39,16.20
2016,08,15,02,40,16.20
2016,08,15,02,41,16.20
2016,08,15,02,42,16.10
2016,08,15,02,43,16.10
2016,08,15,02,44,16.10
2016,08,15,02,45,16.00
2016,08,15,02,46,16.00
2016,08,15,02,47,15.90
2016,08,15,02,48,15.90
2016,08,15,02,49,15.90
2016,08,15,02,50,15.80
2016,08,15,02,51,15.80
2016,08,15,02,52,15.80
2016,08,15,02,53,15.70
2016,08,15,02,54,15.70
2016,08,15,02,55,15.70
2016,08,15,02,56,15.70
2016,08,15,02,57,15.70
2016,08,15,02,58,15.70
2016,08,15,02,59,15.70
2016,08,15,03,00,15.70
2016,08,15,03,01,15.70
2016,08,15,03,02,15.70
2016,08,15,03,03,15.70
2016,08,15,03,04,15.70
2016,08,15,03,05,15.70
2016,08,15,03,06,15.70
2016,08,15,03,07,15.60
2016,08,15,03,08,15.60
2016,08,15,03,09,15.60
2016,08,15,03,10,15.60
2016,08,15,03,11,15.60
2016,08,15,03,12,15.60
2016,08,15,03,13,15.60
2016,08,15,03,14,15.60
2016,08,15,03,15,15.50
2016,08,15,03,16,15.50
2016,08,15,03,17,15.50
2016,08,15,03,18,15.40
2016,08,15,03,19,15.40
2016,08,15,03,20,15.40
2016,08,15,03,21,15.40
2016,08,15,03,22,15.30
2016,08,15,03,23,15.30
2016,08,15,03,24,15.30
2016,08,15,03,25,15.30
2016,08,15,03,26,15.30
2016,08,15,03,27,15.30
2016,08,15,03,28,15.30
2016,08,15,03,29,15.30
2016,08,15,03,30,15.30
2016,08,15,03,31,15.30
2016,08,15,03,32,15.30
2016,08,15,03,33,15.30
2016,08,15,03,34,15.30
2016,08,15,03,35,15.30
2016,08,15,03,36,15.30
2016,08,15,03,37,15.30
2016,08,15,03,38,15.30
2016,08,15,03,39,15.30
2016,08,15,03,40,15.30
2016,08,15,03,41,15.30
2016,08,15,03,42,15.20
2016,08,15,03,43,15.20
2016,08,15,03,44,15.20
2016,08,15,03,45,15.20
2016,08,15,03,46,15.20
2016,08,15,03,47,15.20
2016,08,15,03,48,15.20
2016,08,15,03,49,15.20
2016,08,15,03,50,15.20
2016,08,15,03,51,15.20
2016,08,15,03,52,15.20
2016,08,15,03,53,15.20
2016,08,15,03,54,15.10
2016,08,15,03,55,15.10
2016,08,15,03,56,15.10
2016,08,15,03,57,15.10
2016,08,15,03,58,15.10
2016,08,15,03,59,15.10
2016,08,15,04,00,15.10
2016,08,15,04,01,15.10
2016,08,15,04,02,15.10
2016,08,15,04,03,15.10
2016,08,15,04,04,15.10
2016,08,15,04,05,15.10
2016,08,15,04,06,15.10
2016,08,15,04,07,15.20
2016,08,15,04,08,15.20
2016,08,15,04,09,15.20
2016,08,15,04,10,15.20
2016,08,15,04,11,15.20
2016,08,15,04,12,15.20
2016,08,15,04,13,15.20
2016,08,15,04,14,15.20
2016,08,15,04,15,15.20
2016,08,15,04,16,15.20
2016,08,15,04,17,15.20
2016,08,15,04,18,15.20
2016,08,15,04,19,15.10
2016,08,15,04,20,15.10
2016,08,15,04,21,15.10
2016,08,15,04,22,15.10
2016,08,15,04,23,15.10
2016,08,15,04,24,15.20
2016,08,15,04,25,15.20
2016,08,15,04,26,15.20
2016,08,15,04,27,15.20
2016,08,15,04,28,15.20
2016,08,15,04,29,15.20
2016,08,15,04,30,15.20
2016,08,15,04,31,15.20
2016,08,15,04,32,15.20
2016,08,15,04,33,15.20
2016,08,15,04,34,15.20
2016,08,15,04,35,15.20
2016,08,15,04,36,15.20
2016,08,15,04,37,15.20
2016,08,15,04,38,15.20
2016,08,15,04,39,15.20
2016,08,15,04,40,15.20
2016,08,15,04,41,15.20
2016,08,15,04,42,15.20
2016,08,15,04,43,15.20
2016,08,15,04,44,15.20
2016,08,15,04,45,15.20
2016,08,15,04,46,15.30
2016,08,15,04,47,15.30
2016,08,15,04,48,15.30
2016,08,15,04,49,15.40
2016,08,15,04,50,15.40
2016,08,15,04,51,15.40
2016,08,15,04,52,15.40
2016,08,15,04,53,15.40
2016,08,15,04,54,15.30
2016,08,15,04,55,15.30
2016,08,15,04,56,15.30
2016,08,15,04,57,15.20
2016,08,15,04,58,15.20
2016,08,15,04,59,15.20
2016,08,15,05,00,15.20
2016,08,15,05,01,15.10
2016,08,15,05,02,15.10
2016,08,15,05,03,15.10
2016,08,15,05,04,15.10
2016,08,15,05,05,15.10
2016,08,15,05,06,15.20
2016,08,15,05,07,15.20
2016,08,15,05,08,15.20
2016,08,15,05,09,15.20
2016,08,15,05,10,15.20
2016,08,15,05,11,15.20
2016,08,15,05,12,15.20
2016,08,15,05,13,15.20
2016,08,15,05,14,15.10
2016,08,15,05,15,15.10
2016,08,15,05,16,15.10
2016,08,15,05,17,15.10
2016,08,15,05,18,15.10
2016,08,15,05,19,15.10
2016,08,15,05,20,15.10
2016,08,15,05,21,15.10
2016,08,15,05,22,15.10
2016,08,15,05,23,15.10
2016,08,15,05,24,15.10
2016,08,15,05,25,15.10
2016,08,15,05,26,15.00
2016,08,15,05,27,15.00
2016,08,15,05,28,15.00
2016,08,15,05,29,15.00
2016,08,15,05,30,15.00
2016,08,15,05,31,15.00
2016,08,15,05,32,14.90
2016,08,15,05,33,14.90
2016,08,15,05,34,14.90
2016,08,15,05,35,14.90
2016,08,15,05,36,14.90
2016,08,15,05,37,14.90
2016,08,15,05,38,14.80
2016,08,15,05,39,14.80
2016,08,15,05,40,14.80
2016,08,15,05,41,14.80
2016,08,15,05,42,14.80
2016,08,15,05,43,14.80
2016,08,15,05,44,14.80
2016,08,15,05,45,14.80
2016,08,15,05,46,14.80
2016,08,15,05,47,14.80
2016,08,15,05,48,14.80
2016,08,15,05,49,14.80
2016,08,15,05,50,14.80
2016,08,15,05,51,14.80
2016,08,15,05,52,14.80
2016,08,15,05,53,14.70
2016,08,15,05,54,14.70
2016,08,15,05,55,14.70
2016,08,15,05,56,14.70
2016,08,15,05,57,14.70
2016,08,15,05,58,14.70
2016,08,15,05,59,14.60
2016,08,15,06,00,14.60
2016,08,15,06,01,14.60
2016,08,15,06,02,14.50
2016,08,15,06,03,14.50
2016,08,15,06,04,14.40
2016,08,15,06,05,14.40
2016,08,15,06,06,14.40
2016,08,15,06,07,14.40
2016,08,15,06,08,14.30
2016,08,15,06,09,14.30
2016,08,15,06,10,14.30
2016,08,15,06,11,14.30
2016,08,15,06,12,14.20
2016,08,15,06,13,14.20
2016,08,15,06,14,14.20
2016,08,15,06,15,14.20
2016,08,15,06,16,14.20
2016,08,15,06,17,14.20
2016,08,15,06,18,14.20
2016,08,15,06,19,14.20
2016,08,15,06,20,14.20
2016,08,15,06,21,14.20
2016,08,15,06,22,14.20
2016,08,15,06,23,14.20
2016,08,15,06,24,14.20
2016,08,15,06,25,14.20
2016,08,15,06,26,14.20
2016,08,15,06,27,14.20
2016,08,15,06,28,14.20
2016,08,15,06,29,14.30
2016,08,15,06,30,14.30
2016,08,15,06,31,14.30
2016,08,15,06,32,14.30
2016,08,15,06,33,14.30
2016,08,15,06,34,14.30
2016,08,15,06,35,14.30
2016,08,15,06,36,14.30
2016,08,15,06,37,14.30
2016,08,15,06,38,14.30
2016,08,15,06,39,14.30
2016,08,15,06,40,14.30
2016,08,15,06,41,14.30
2016,08,15,06,42,14.40
2016,08,15,06,43,14.40
2016,08,15,06,44,14.40
2016,08,15,06,45,14.40
2016,08,15,06,46,14.40
2016,08,15,06,47,14.50
2016,08,15,06,48,14.50
2016,08,15,06,49,14.50
2016,08,15,06,50,14.50
2016,08,15,06,51,14.50
2016,08,15,06,52,14.50
2016,08,15,06,53,14.50
2016,08,15,06,54,14.60
2016,08,15,06,55,14.60
2016,08,15,06,56,14.60
2016,08,15,06,57,14.60
2016,08,15,06,58,14.60
2016,08,15,06,59,14.70
2016,08,15,07,00,14.70
2016,08,15,07,01,14.70
2016,08,15,07,02,14.70
2016,08,15,07,03,14.70
2016,08,15,07,04,14.80
2016,08,15,07,05,14.80
2016,08,15,07,06,14.80
2016,08,15,07,07,14.90
2016,08,15,07,08,14.90
2016,08,15,07,09,14.90
2016,08,15,07,10,14.90
2016,08,15,07,11,15.00
2016,08,15,07,12,15.00
2016,08,15,07,13,15.00
2016,08,15,07,14,15.00
2016,08,15,07,15,15.10
2016,08,15,07,16,15.10
2016,08,15,07,17,15.10
2016,08,15,07,18,15.10
2016,08,15,07,19,15.20
2016,08,15,07,20,15.20
2016,08,15,07,21,15.30
2016,08,15,07,22,15.30
2016,08,15,07,23,15.40
2016,08,15,07,24,15.40
2016,08,15,07,25,15.50
2016,08,15,07,26,15.60
2016,08,15,07,27,15.60
2016,08,15,07,28,15.70
2016,08,15,07,29,15.70
2016,08,15,07,30,15.80
2016,08,15,07,31,15.80
2016,08,15,07,32,15.80
2016,08,15,07,33,15.90
2016,08,15,07,34,16.00
2016,08,15,07,35,16.00
2016,08,15,07,36,16.10
2016,08,15,07,37,16.20
2016,08,15,07,38,16.20
2016,08,15,07,39,16.30
2016,08,15,07,40,16.30
2016,08,15,07,41,16.40
2016,08,15,07,42,16.50
2016,08,15,07,43,16.60
2016,08,15,07,44,16.70
2016,08,15,07,45,16.70
2016,08,15,07,46,16.80
2016,08,15,07,47,16.90
2016,08,15,07,48,17.00
2016,08,15,07,49,17.00
2016,08,15,07,50,17.10
2016,08,15,07,51,17.20
2016,08,15,07,52,17.20
2016,08,15,07,53,17.30
2016,08,15,07,54,17.30
2016,08,15,07,55,17.30
2016,08,15,07,56,17.40
2016,08,15,07,57,17.40
2016,08,15,07,58,17.40
2016,08,15,07,59,17.40
2016,08,15,08,00,17.40
2016,08,15,08,01,17.50
2016,08,15,08,02,17.50
2016,08,15,08,03,17.50
2016,08,15,08,04,17.50
2016,08,15,08,05,17.50
2016,08,15,08,06,17.50
2016,08,15,08,07,17.60
2016,08,15,08,08,17.60
2016,08,15,08,09,17.60
2016,08,15,08,10,17.60
2016,08,15,08,11,17.60
2016,08,15,08,12,17.60
2016,08,15,08,13,17.70
2016,08,15,08,14,17.70
2016,08,15,08,15,17.80
2016,08,15,08,16,17.90
2016,08,15,08,17,17.90
2016,08,15,08,18,18.00
2016,08,15,08,19,18.00
2016,08,15,08,20,18.00
2016,08,15,08,21,18.10
2016,08,15,08,22,18.10
2016,08,15,08,23,18.10
2016,08,15,08,24,18.20
2016,08,15,08,25,18.20
2016,08,15,08,26,18.30
2016,08,15,08,27,18.30
2016,08,15,08,28,18.30
2016,08,15,08,29,18.30
2016,08,15,08,30,18.40
2016,08,15,08,31,18.40
2016,08,15,08,32,18.40
2016,08,15,08,33,18.40
2016,08,15,08,34,18.40
2016,08,15,08,35,18.40
2016,08,15,08,36,18.40
2016,08,15,08,37,18.40
2016,08,15,08,38,18.40
2016,08,15,08,39,18.40
2016,08,15,08,40,18.50
2016,08,15,08,41,18.60
2016,08,15,08,42,18.60
2016,08,15,08,43,18.70
2016,08,15,08,44,18.70
2016,08,15,08,45,18.70
2016,08,15,08,46,18.70
2016,08,15,08,47,18.80
2016,08,15,08,48,18.80
2016,08,15,08,49,18.90
2016,08,15,08,50,18.90
2016,08,15,08,51,18.90
2016,08,15,08,52,18.90
2016,08,15,08,53,18.80
2016,08,15,08,54,18.80
2016,08,15,08,55,18.80
2016,08,15,08,56,18.80
2016,08,15,08,57,18.80
2016,08,15,08,58,18.80
2016,08,15,08,59,18.80
2016,08,15,09,00,18.80
2016,08,15,09,01,18.80
2016,08,15,09,02,18.90
2016,08,15,09,03,18.90
2016,08,15,09,04,18.90
2016,08,15,09,05,19.00
2016,08,15,09,06,19.00
2016,08,15,09,07,19.10
2016,08,15,09,08,19.20
2016,08,15,09,09,19.30
2016,08,15,09,10,19.30
2016,08,15,09,11,19.40
2016,08,15,09,12,19.50
2016,08,15,09,13,19.50
2016,08,15,09,14,19.60
2016,08,15,09,15,19.70
2016,08,15,09,16,19.70
2016,08,15,09,17,19.80
2016,08,15,09,18,19.80
2016,08,15,09,19,19.80
2016,08,15,09,20,19.80
2016,08,15,09,21,19.90
2016,08,15,09,22,19.90
2016,08,15,09,23,20.00
2016,08,15,09,24,20.00
2016,08,15,09,25,20.00
2016,08,15,09,26,20.10
2016,08,15,09,27,20.10
2016,08,15,09,28,20.20
2016,08,15,09,29,20.30
2016,08,15,09,30,20.30
2016,08,15,09,31,20.40
2016,08,15,09,32,20.40
2016,08,15,09,33,20.30
2016,08,15,09,34,20.30
2016,08,15,09,35,20.30
2016,08,15,09,36,20.30
2016,08,15,09,37,20.30
2016,08,15,09,38,20.30
2016,08,15,09,39,20.30
2016,08,15,09,40,20.30
2016,08,15,09,41,20.30
2016,08,15,09,42,20.30
2016,08,15,09,43,20.30
2016,08,15,09,44,20.30
2016,08,15,09,45,20.30
2016,08,15,09,46,20.30
2016,08,15,09,47,20.30
2016,08,15,09,48,20.30
2016,08,15,09,49,20.40
2016,08,15,09,50,20.50
2016,08,15,09,51,20.60
2016,08,15,09,52,20.60
2016,08,15,09,53,20.60
2016,08,15,09,54,20.70
2016,08,15,09,55,20.70
2016,08,15,09,56,20.70
2016,08,15,09,57,20.80
2016,08,15,09,58,20.90
2016,08,15,09,59,21.00
2016,08,15,10,00,21.10
2016,08,15,10,01,21.30
2016,08,15,10,02,21.30
2016,08,15,10,03,21.40
2016,08,15,10,04,21.40
2016,08,15,10,05,21.40
2016,08,15,10,06,21.50
2016,08,15,10,07,21.50
2016,08,15,10,08,21.40
2016,08,15,10,09,21.40
2016,08,15,10,10,21.30
2016,08,15,10,11,21.30
2016,08,15,10,12,21.30
2016,08,15,10,13,21.20
2016,08,15,10,14,21.20
2016,08,15,10,15,21.20
2016,08,15,10,16,21.20
2016,08,15,10,17,21.20
2016,08,15,10,18,21.30
2016,08,15,10,19,21.30
2016,08,15,10,20,21.40
2016,08,15,10,21,21.40
2016,08,15,10,22,21.50
2016,08,15,10,23,21.60
2016,08,15,10,24,21.60
2016,08,15,10,25,21.60
2016,08,15,10,26,21.60
2016,08,15,10,27,21.60
2016,08,15,10,28,21.60
2016,08,15,10,29,21.60
2016,08,15,10,30,21.60
2016,08,15,10,31,21.60
2016,08,15,10,32,21.60
2016,08,15,10,33,21.70
2016,08,15,10,34,21.80
2016,08,15,10,35,21.90
2016,08,15,10,36,21.90
2016,08,15,10,37,21.90
2016,08,15,10,38,21.90
2016,08,15,10,39,21.90
2016,08,15,10,40,22.00
2016,08,15,10,41,22.00
2016,08,15,10,42,22.00
2016,08,15,10,43,22.00
2016,08,15,10,44,22.00
2016,08,15,10,45,22.00
2016,08,15,10,46,22.10
2016,08,15,10,47,22.10
2016,08,15,10,48,22.10
2016,08,15,10,49,22.10
2016,08,15,10,50,22.10
2016,08,15,10,51,22.10
2016,08,15,10,52,22.10
2016,08,15,10,53,22.10
2016,08,15,10,54,22.10
2016,08,15,10,55,22.10
2016,08,15,10,56,22.10
2016,08,15,10,57,22.10
2016,08,15,10,58,22.10
2016,08,15,10,59,22.00
2016,08,15,11,00,22.00
2016,08,15,11,01,22.10
2016,08,15,11,02,22.20
2016,08,15,11,03,22.30
2016,08,15,11,04,22.30
2016,08,15,11,05,22.30
2016,08,15,11,06,22.30
2016,08,15,11,07,22.30
2016,08,15,11,08,22.40
2016,08,15,11,09,22.40
2016,08,15,11,10,22.50
2016,08,15,11,11,22.50
2016,08,15,11,12,22.60
2016,08,15,11,13,22.60
2016,08,15,11,14,22.60
2016,08,15,11,15,22.70
2016,08,15,11,16,22.70
2016,08,15,11,17,22.80
2016,08,15,11,18,22.80
2016,08,15,11,19,22.80
2016,08,15,11,20,22.80
2016,08,15,11,21,22.90
2016,08,15,11,22,23.00
2016,08,15,11,23,23.00
2016,08,15,11,24,23.00
2016,08,15,11,25,23.00
2016,08,15,11,26,22.90
2016,08,15,11,27,22.90
2016,08,15,11,28,22.90
2016,08,15,11,29,22.90
2016,08,15,11,30,22.90
2016,08,15,11,31,22.90
2016,08,15,11,32,23.00
2016,08,15,11,33,23.10
2016,08,15,11,34,23.20
2016,08,15,11,35,23.30
2016,08,15,11,36,23.50
2016,08,15,11,37,23.60
2016,08,15,11,38,23.70
2016,08,15,11,39,23.80
2016,08,15,11,40,23.80
2016,08,15,11,41,23.80
2016,08,15,11,42,23.80
2016,08,15,11,43,23.90
2016,08,15,11,44,23.90
2016,08,15,11,45,23.90
2016,08,15,11,46,24.00
2016,08,15,11,47,24.00
2016,08,15,11,48,24.10
2016,08,15,11,49,24.10
2016,08,15,11,50,24.00
2016,08,15,11,51,24.00
2016,08,15,11,52,24.00
2016,08,15,11,53,24.00
2016,08,15,11,54,24.00
2016,08,15,11,55,24.10
2016,08,15,11,56,24.00
2016,08,15,11,57,23.90
2016,08,15,11,58,23.90
2016,08,15,11,59,23.90
2016,08,15,12,00,23.90
2016,08,15,12,01,23.90
2016,08,15,12,02,24.00
2016,08,15,12,03,24.00
2016,08,15,12,04,24.00
2016,08,15,12,05,23.90
2016,08,15,12,06,23.80
2016,08,15,12,07,23.70
2016,08,15,12,08,23.70
2016,08,15,12,09,23.70
2016,08,15,12,10,23.70
2016,08,15,12,11,23.80
2016,08,15,12,12,23.90
2016,08,15,12,13,24.00
2016,08,15,12,14,24.10
2016,08,15,12,15,24.20
2016,08,15,12,16,24.20
2016,08,15,12,17,24.20
2016,08,15,12,18,24.30
2016,08,15,12,19,24.30
2016,08,15,12,20,24.40
2016,08,15,12,21,24.50
2016,08,15,12,22,24.50
2016,08,15,12,23,24.60
2016,08,15,12,24,24.60
2016,08,15,12,25,24.70
2016,08,15,12,26,24.80
2016,08,15,12,27,24.80
2016,08,15,12,28,24.70
2016,08,15,12,29,24.70
2016,08,15,12,30,24.70
2016,08,15,12,31,24.70
2016,08,15,12,32,24.70
2016,08,15,12,33,24.70
2016,08,15,12,34,24.70
2016,08,15,12,35,24.70
2016,08,15,12,36,24.80
2016,08,15,12,37,24.80
2016,08,15,12,38,24.80
2016,08,15,12,39,24.80
2016,08,15,12,40,24.90
2016,08,15,12,41,25.00
2016,08,15,12,42,25.10
2016,08,15,12,43,25.10
2016,08,15,12,44,25.00
2016,08,15,12,45,25.00
2016,08,15,12,46,25.00
2016,08,15,12,47,25.00
2016,08,15,12,48,25.00
2016,08,15,12,49,25.10
2016,08,15,12,50,25.10
2016,08,15,12,51,25.20
2016,08,15,12,52,25.20
2016,08,15,12,53,25.20
2016,08,15,12,54,25.20
2016,08,15,12,55,25.10
2016,08,15,12,56,25.00
2016,08,15,12,57,24.90
2016,08,15,12,58,24.80
2016,08,15,12,59,24.80
2016,08,15,13,00,24.80
2016,08,15,13,01,24.90
2016,08,15,13,02,24.90
2016,08,15,13,03,24.90
2016,08,15,13,04,25.00
2016,08,15,13,05,25.00
2016,08,15,13,06,25.10
2016,08,15,13,07,25.10
2016,08,15,13,08,25.20
2016,08,15,13,09,25.20
2016,08,15,13,10,25.20
2016,08,15,13,11,25.20
2016,08,15,13,12,25.20
2016,08,15,13,13,25.30
2016,08,15,13,14,25.30
2016,08,15,13,15,25.30
2016,08,15,13,16,25.30
2016,08,15,13,17,25.20
2016,08,15,13,18,25.20
2016,08,15,13,19,25.20
2016,08,15,13,20,25.20
2016,08,15,13,21,25.10
2016,08,15,13,22,25.10
2016,08,15,13,23,25.00
2016,08,15,13,24,24.90
2016,08,15,13,25,24.90
2016,08,15,13,26,24.90
2016,08,15,13,27,25.00
2016,08,15,13,28,25.10
2016,08,15,13,29,25.10
2016,08,15,13,30,25.10
2016,08,15,13,31,25.10
2016,08,15,13,32,25.10
2016,08,15,13,33,25.10
2016,08,15,13,34,25.10
2016,08,15,13,35,25.10
2016,08,15,13,36,25.20
2016,08,15,13,37,25.30
2016,08,15,13,38,25.40
2016,08,15,13,39,25.50
2016,08,15,13,40,25.60
2016,08,15,13,41,25.70
2016,08,15,13,42,25.70
2016,08,15,13,43,25.80
2016,08,15,13,44,25.80
2016,08,15,13,45,25.90
2016,08,15,13,46,25.90
2016,08,15,13,47,25.90
2016,08,15,13,48,26.00
2016,08,15,13,49,25.90
2016,08,15,13,50,25.90
2016,08,15,13,51,25.90
2016,08,15,13,52,25.90
2016,08,15,13,53,25.90
2016,08,15,13,54,26.00
2016,08,15,13,55,26.00
2016,08,15,13,56,26.00
2016,08,15,13,57,26.00
2016,08,15,13,58,26.00
2016,08,15,13,59,25.90
2016,08,15,14,00,25.90
2016,08,15,14,01,25.90
2016,08,15,14,02,26.00
2016,08,15,14,03,26.10
2016,08,15,14,04,26.10
2016,08,15,14,05,26.10
2016,08,15,14,06,26.10
2016,08,15,14,07,26.10
2016,08,15,14,08,26.10
2016,08,15,14,09,26.00
2016,08,15,14,10,25.90
2016,08,15,14,11,25.90
2016,08,15,14,12,25.90
2016,08,15,14,13,25.90
2016,08,15,14,14,25.90
2016,08,15,14,15,25.90
2016,08,15,14,16,26.00
2016,08,15,14,17,26.00
2016,08,15,14,18,26.10
2016,08,15,14,19,26.10
2016,08,15,14,20,26.20
2016,08,15,14,21,26.10
2016,08,15,14,22,26.10
2016,08,15,14,23,26.00
2016,08,15,14,24,26.00
2016,08,15,14,25,25.90
2016,08,15,14,26,26.00
2016,08,15,14,27,26.10
2016,08,15,14,28,26.10
2016,08,15,14,29,26.10
2016,08,15,14,30,26.20
2016,08,15,14,31,26.30
2016,08,15,14,32,26.30
2016,08,15,14,33,26.30
2016,08,15,14,34,26.30
2016,08,15,14,35,26.30
2016,08,15,14,36,26.40
2016,08,15,14,37,26.40
2016,08,15,14,38,26.40
2016,08,15,14,39,26.40
2016,08,15,14,40,26.40
2016,08,15,14,41,26.40
2016,08,15,14,42,26.40
2016,08,15,14,43,26.40
2016,08,15,14,44,26.40
2016,08,15,14,45,26.40
2016,08,15,14,46,26.40
2016,08,15,14,47,26.40
2016,08,15,14,48,26.40
2016,08,15,14,49,26.40
2016,08,15,14,50,26.40
2016,08,15,14,51,26.40
2016,08,15,14,52,26.50
2016,08,15,14,53,26.50
2016,08,15,14,54,26.60
2016,08,15,14,55,26.60
2016,08,15,14,56,26.60
2016,08,15,14,57,26.50
2016,08,15,14,58,26.50
2016,08,15,14,59,26.50
2016,08,15,15,00,26.50
2016,08,15,15,01,26.60
2016,08,15,15,02,26.60
2016,08,15,15,03,26.70
2016,08,15,15,04,26.70
2016,08,15,15,05,26.70
2016,08,15,15,06,26.70
2016,08,15,15,07,26.70
2016,08,15,15,08,26.70
2016,08,15,15,09,26.70
2016,08,15,15,10,26.70
2016,08,15,15,11,26.70
2016,08,15,15,12,26.70
2016,08,15,15,13,26.80
2016,08,15,15,14,26.80
2016,08,15,15,15,26.90
2016,08,15,15,16,26.90
2016,08,15,15,17,26.90
2016,08,15,15,18,26.90
2016,08,15,15,19,27.00
2016,08,15,15,20,27.00
2016,08,15,15,21,26.90
2016,08,15,15,22,26.80
2016,08,15,15,23,26.80
2016,08,15,15,24,26.80
2016,08,15,15,25,26.80
2016,08,15,15,26,26.80
2016,08,15,15,27,26.80
2016,08,15,15,28,26.80
2016,08,15,15,29,26.90
2016,08,15,15,30,26.80
2016,08,15,15,31,26.90
2016,08,15,15,32,26.90
2016,08,15,15,33,27.00
2016,08,15,15,34,27.10
2016,08,15,15,35,27.10
2016,08,15,15,36,27.20
2016,08,15,15,37,27.20
2016,08,15,15,38,27.30
2016,08,15,15,39,27.20
2016,08,15,15,40,27.20
2016,08,15,15,41,27.20
2016,08,15,15,42,27.30
2016,08,15,15,43,27.30
2016,08,15,15,44,27.30
2016,08,15,15,45,27.30
2016,08,15,15,46,27.20
2016,08,15,15,47,27.20
2016,08,15,15,48,27.10
2016,08,15,15,49,27.10
2016,08,15,15,50,27.20
2016,08,15,15,51,27.20
2016,08,15,15,52,27.30
2016,08,15,15,53,27.30
2016,08,15,15,54,27.30
2016,08,15,15,55,27.40
2016,08,15,15,56,27.40
2016,08,15,15,57,27.40
2016,08,15,15,58,27.50
2016,08,15,15,59,27.50
2016,08,15,16,00,27.60
2016,08,15,16,01,27.60
2016,08,15,16,02,27.60
2016,08,15,16,03,27.70
2016,08,15,16,04,27.70
2016,08,15,16,05,27.70
2016,08,15,16,06,27.70
2016,08,15,16,07,27.70
2016,08,15,16,08,27.60
2016,08,15,16,09,27.60
2016,08,15,16,10,27.50
2016,08,15,16,11,27.40
2016,08,15,16,12,27.30
2016,08,15,16,13,27.30
2016,08,15,16,14,27.30
2016,08,15,16,15,27.30
2016,08,15,16,16,27.30
2016,08,15,16,17,27.30
2016,08,15,16,18,27.30
2016,08,15,16,19,27.40
2016,08,15,16,20,27.40
2016,08,15,16,21,27.40
2016,08,15,16,22,27.30
2016,08,15,16,23,27.30
2016,08,15,16,24,27.30
2016,08,15,16,25,27.40
2016,08,15,16,26,27.40
2016,08,15,16,27,27.50
2016,08,15,16,28,27.50
2016,08,15,16,29,27.50
2016,08,15,16,30,27.60
2016,08,15,16,31,27.50
2016,08,15,16,32,27.50
2016,08,15,16,33,27.60
2016,08,15,16,34,27.60
2016,08,15,16,35,27.60
2016,08,15,16,36,27.60
2016,08,15,16,37,27.70
2016,08,15,16,38,27.70
2016,08,15,16,39,27.70
2016,08,15,16,40,27.70
2016,08,15,16,41,27.70
2016,08,15,16,42,27.70
2016,08,15,16,43,27.70
2016,08,15,16,44,27.60
2016,08,15,16,45,27.60
2016,08,15,16,46,27.60
2016,08,15,16,47,27.60
2016,08,15,16,48,27.60
2016,08,15,16,49,27.60
2016,08,15,16,50,27.60
2016,08,15,16,51,27.60
2016,08,15,16,52,27.60
2016,08,15,16,53,27.60
2016,08,15,16,54,27.60
2016,08,15,16,55,27.60
2016,08,15,16,56,27.60
2016,08,15,16,57,27.60
2016,08,15,16,58,27.50
2016,08,15,16,59,27.50
2016,08,15,17,00,27.50
2016,08,15,17,01,27.50
2016,08,15,17,02,27.60
2016,08,15,17,03,27.60
2016,08,15,17,04,27.60
2016,08,15,17,05,27.60
2016,08,15,17,06,27.60
2016,08,15,17,07,27.60
2016,08,15,17,08,27.60
2016,08,15,17,09,27.60
2016,08,15,17,10,27.60
2016,08,15,17,11,27.60
2016,08,15,17,12,27.70
2016,08,15,17,13,27.70
2016,08,15,17,14,27.80
2016,08,15,17,15,27.80
2016,08,15,17,16,27.80
2016,08,15,17,17,27.80
2016,08,15,17,18,27.80
2016,08,15,17,19,27.80